Flag for Kazakhstan Weather past 2 weeks in Qyzylorda, Kazakhstan

Now
64 °F

Sunny.


Feels Like: 64 °F
Forecast: 46 / 70 °F
Wind: 24 mph from East

Location: Kzyl-Orda


UV Index: 5 (Moderate)

Visibility: 10 mi


Pressure: 30.15 "Hg

Humidity: 21%

Dew point: 23 °F

Location of QyzylordaLocation

Historic Weather in Qyzylorda

°F

Qyzylorda temperature yesterday

Maximum temperature yesterday: 63 °F (at 3:00 PM)
Minimum temperature yesterday: 39 °F (at 7:00 AM)
Average temperature yesterday: 54 °F

Past Weeks' High & Low Weather Summary

 TemperatureHumidityPressure
High77 °F (Apr 9, 5:00 PM)100% (Apr 3, 5:00 AM)30.57 "Hg (Apr 3, 5:00 AM)
Low25 °F (Apr 14, 5:00 AM)17% (Apr 15, 6:00 PM)29.56 "Hg (Apr 10, 4:00 AM)
Average48 °F53%30.16 "Hg
* Reported Apr 2 4:00 PM — Apr 17 4:00 PM, Qyzylorda, Weather by CustomWeather, © 2014

Note: Actual official high and low records may vary slightly from our data, if they occured in-between our weather recording intervals... More about our weather records

Advertising

Historic Weather Conditions — Data for Previous 24 hours

 ConditionsComfort  
Time TempWeatherWind HumidityBarometerVisibility
4:00 PM
Apr 17
63 °FSunny.22 mph20%30.18 "Hg10 mi
3:30 PM63 °FSunny.22 mph22%30.18 "Hg10 mi
3:00 PM63 °FSunny.22 mph20%30.18 "Hg10 mi
2:30 PM61 °FSunny.24 mph20%30.18 "Hg10 mi
2:00 PM61 °FSunny.24 mph22%30.18 "Hg10 mi
1:30 PM61 °FSunny.22 mph22%30.21 "Hg10 mi
1:00 PM59 °FSunny.22 mph23%30.21 "Hg10 mi
12:30 PM57 °FSunny.24 mph25%30.21 "Hg10 mi
12:00 PM57 °FPassing clouds.20 mph27%30.24 "HgN/A
11:30 AM55 °FSunny.20 mph31%30.24 "Hg10 mi
11:00 AM55 °FSunny.17 mph31%30.24 "Hg10 mi
10:30 AM54 °FSunny.15 mph35%30.24 "Hg10 mi
10:00 AM50 °FSunny.15 mph43%30.24 "Hg10 mi
9:30 AM46 °FSunny.17 mph50%30.24 "Hg10 mi
9:00 AM46 °FSunny.17 mph50%30.24 "Hg10 mi
8:30 AM45 °FSunny.15 mph49%30.24 "Hg10 mi
8:00 AM43 °FPassing clouds.15 mph53%30.21 "HgN/A
7:30 AM41 °FSunny.13 mph57%30.21 "Hg10 mi
7:00 AM41 °FSunny.10 mph61%30.21 "Hg10 mi
6:00 AM41 °FClear.10 mph61%30.21 "Hg10 mi
5:00 AM43 °FClear.8 mph57%30.21 "Hg10 mi
4:00 AM45 °FClear.10 mph53%30.21 "Hg10 mi
3:00 AM48 °FClear.13 mph46%30.21 "Hg10 mi
2:00 AM48 °FClear.13 mph43%30.24 "Hg10 mi
1:00 AM50 °FClear.10 mph40%30.24 "Hg10 mi
12:00 AM50 °FClear.10 mph37%30.24 "Hg10 mi
11:00 PM
Apr 16
50 °FClear.10 mph37%30.24 "Hg10 mi
10:00 PM52 °FClear.6 mph32%30.24 "Hg10 mi
9:00 PM55 °FClear.8 mph28%30.21 "Hg10 mi
8:00 PM59 °FSunny.13 mph25%30.21 "Hg10 mi
7:00 PM61 °FSunny.17 mph22%30.21 "Hg10 mi
6:30 PM63 °FSunny.17 mph20%30.21 "Hg10 mi
6:00 PM63 °FSunny.17 mph19%30.21 "Hg10 mi
5:30 PM63 °FSunny.20 mph19%30.21 "Hg10 mi
5:00 PM63 °FSunny.20 mph19%30.21 "Hg10 mi
Weather by CustomWeather, © 2014

See weather overview